Regional Weather Roundup
Issued by NWS

Home | Current Version | Previous Version | Graphics & Text | Print | Product List | Glossary On
Versions: 1 2 3 4 5 6 7 8 9 10 11 12 13 14 15 16 17 18 19 20 21 22 23 24 25 26 27 28 29 30 31 32 33 34 35 36 37 38 39 40 41 42 43 44 45 46 47 48 49 50
000
ASUS43 KDMX 211807
RWRIA

WEATHER ROUNDUP FOR IOWA
NATIONAL WEATHER SERVICE DES MOINES IA
100 PM CDT SUN SEP 21 2014

NOTE: "FAIR" INDICATES FEW OR NO CLOUDS BELOW 12,000 FEET WITH NO
SIGNIFICANT WEATHER AND/OR OBSTRUCTIONS TO VISIBILITY.

* - THESE STATIONS ARE NOT NWS STATIONS...THUS NOT UNDER NWS
QUALITY CONTROL.  THEY ALSO DO NOT REPORT WEATHER SUCH
AS PRECIPITATION OR FOG.

IAZ001>003-012>014-020>022-031>034-043>046-211900-
   NORTHWEST IOWA

CITY           SKY/WX    TMP DP  RH WIND       PRES   REMARKS
CARROLL *      MOSUNNY   66  46  48 N18G26    30.19R
CHEROKEE *     MOSUNNY   65  48  54 NW10G22   30.21S
DENISON *      MOSUNNY   66  50  55 NW16G22   30.19S
LE MARS *      MOSUNNY   66  48  52 N13G20    30.23F
ORANGE CITY *  MOSUNNY   68  46  45 N9G20     30.23S
SHELDON *      MOSUNNY   66  46  48 N16       30.21S
SIOUX CITY     MOSUNNY   70  48  45 NW16G26   30.23F
6HR MIN TEMP:  51; 6HR MAX TEMP:  70;

SPENCER        PTSUNNY   67  49  52 N12       30.20F
6HR MIN TEMP:  47; 6HR MAX TEMP:  67;

STORM LAKE *   SUNNY     64  52  63 N12G18    30.20F
$$

IAZ055>058-069>071-079>083-090>094-211900-
   SOUTHWEST IOWA

CITY           SKY/WX    TMP DP  RH WIND       PRES   REMARKS
ATLANTIC *     MOSUNNY   68  48  49 N17G25    30.19S
AUDUBON *      MOSUNNY   68  45  42 NW13G20   30.20S
CLARINDA *     SUNNY     72  48  43 N13G22    30.21S
COUNCIL BLFS * SUNNY     68  50  52 NW16G24   30.21S
CRESTON *      SUNNY     68  48  49 N20G25    30.18S
HARLAN  *      MOSUNNY   68  48  49 NW16      30.24S
LAMONI         MOSUNNY   68  50  52 NW15G25   30.16S
6HR MIN TEMP:  53; 6HR MAX TEMP:  68;

RED OAK *      MOSUNNY   70  50  49 NW13G23   30.21S
SHENANDOAH *   SUNNY     70  48  46 N16G24    30.21S
$$

IAZ047>049-059>061-072>074-084-211900-
   CENTRAL IOWA

CITY           SKY/WX    TMP DP  RH WIND       PRES   REMARKS
AMES           MOSUNNY   67  49  52 N20G28    30.14S
6HR MIN TEMP:  55; 6HR MAX TEMP:  67;

ANKENY *       MOSUNNY   68  48  49 N16G24    30.14S
CHARITON *     SUNNY     68  48  49 NW18G29   30.14R
DES MOINES     MOSUNNY   70  48  45 N14G22    30.14S
6HR MIN TEMP:  55; 6HR MAX TEMP:  70;

GRINNELL*      MOSUNNY   65  48  53 NW14G21   30.13R
KNOXVILLE *    MOSUNNY   68  46  45 NW17G25   30.12R
MARSHALLTOWN   PTSUNNY   64  49  57 N16       30.13R
6HR MIN TEMP:  52; 6HR MAX TEMP:  65;

PELLA *        MOSUNNY   68  49  49 N17G24    30.13S
PERRY *        PTSUNNY   69  47  45 N13G21    30.17S
$$

IAZ004>006-015-016-023>025-035-036-211900-
   NORTH CENTRAL IOWA

CITY           SKY/WX    TMP DP  RH WIND       PRES   REMARKS
ALGONA *       CLOUDY    63  46  55 N18G25    30.18R
CLARION *        N/A     64  46  52 N15G23    30.16S
ESTHERVILLE    MOSUNNY   64  48  56 N16G26    30.19R
6HR MIN TEMP:  49; 6HR MAX TEMP:  64;

FORT DODGE *   PTSUNNY   64  46  52 N7G22     30.18S
MASON CITY     CLOUDY    60  50  69 NW14G23   30.16R
6HR MIN TEMP:  51; 6HR MAX TEMP:  62;

FOREST CITY *  PTSUNNY   63  48  59 N14G22    30.16S
IOWA FALLS *   PTSUNNY   61  48  63 NW16      30.16R
$$

IAZ007>011-017>019-026>030-037>042-050>054-066-211900-
   NORTHEAST IOWA

CITY           SKY/WX    TMP DP  RH WIND       PRES   REMARKS
CEDAR RAPIDS   CLOUDY    59  51  75 NW15      30.09R
6HR MIN TEMP:  53; 6HR MAX TEMP:  60;

CHARLES CITY * CLOUDY    61  48  63 NW16      30.13R
CLINTON *      CLOUDY    61  50  67 NW15G21   30.07R
DECORAH *      PTSUNNY   63  50  63 N9G21     30.07S
DUBUQUE        CLOUDY    58  51  78 N13       30.05R
6HR MIN TEMP:  53; 6HR MAX TEMP:  59;

MONTICELLO *   CLOUDY    61  52  72 NW17      30.07R
OELWEIN *      CLOUDY    61  50  67 N16G23    30.10S
WATERLOO       CLOUDY    59  49  69 NW17      30.11R
6HR MIN TEMP:  53; 6HR MAX TEMP:  60;

$$

IAZ064-065-067-068-078-211900-
   EAST CENTRAL IOWA

CITY           SKY/WX    TMP DP  RH WIND       PRES   REMARKS
DAVENPORT      CLOUDY    63  48  58 NW10G26   30.05S
6HR MIN TEMP:  54; 6HR MAX TEMP:  64;

IOWA CITY        N/A     61  50  67 NW20G28   30.10R
6HR MIN TEMP:  54; 6HR MAX TEMP:  63;

MT. PLEASANT * MOSUNNY   68  46  45 NW16G25   30.08R
MUSCATINE *    PTSUNNY   64  50  59 N15G23    30.07R
QUAD CITIES    CLOUDY    63  49  60 NW14G25   30.05R
6HR MIN TEMP:  57; 6HR MAX TEMP:  64;

$$

IAZ062-063-075>077-085>089-095>099-211900-
   SOUTHEAST IOWA

CITY           SKY/WX    TMP DP  RH WIND       PRES   REMARKS
BURLINGTON     MOSUNNY   67  50  54 NW13G26   30.06R
6HR MIN TEMP:  56; 6HR MAX TEMP:  69;

FAIRFIELD *    PTSUNNY   68  48  49 N17G24    30.09S
FORT MADISON * SUNNY     72  46  40 NW18G26   30.07R
KEOKUK *       SUNNY     70  50  49 N14G26    30.06S
OSKALOOSA *      N/A     67  50  53 NW17G26   30.11S
CENTERVILLE *  SUNNY     68  48  49 NW15G22   30.14R
OTTUMWA        MOSUNNY   68  49  50 NW21G29   30.11R
6HR MIN TEMP:  54; 6HR MAX TEMP:  68;

WASHINGTON *   CLOUDY    64  50  59 NW16G25   30.10R
$$

ABBREVIATIONS USED IN REMARKS
   TC - TEMPERATURES IN CELSIUS
  WCI - WIND CHILL INDEX
   HX - HEAT INDEX
  VSB - VISIBILITY
$$



USA.gov is the U.S. government's official web portal to all federal, state and local government web resources and services.